Location: Aalen
(48.8330°N, 10.1000°E)
Time: 19:33:21
(UTC+01:00)

UWE-3 - Pass Details

Date: 08 October 2025
Orbit: 548 x 618 km, 97.8° (Epoch: 12 November)

Event Time Altitude Azimuth Distance (km) Brightness Sun altitude
Rises 04:11:52 0° 12° (NNE) 2,743 ? -32.1°
Reaches altitude 10° 04:13:59 10° 12° (NNE) 1,850 ? -31.8°
Enters shadow 04:14:44 15° 11° (NNE) 1,543 ? -31.7°
